Regional Weather Roundup
Issued by NWS

Home | Current Version | Previous Version | Graphics & Text | Print | Product List | Glossary On
Versions: 1 2 3 4 5 6 7 8 9 10 11 12 13 14 15 16 17 18 19 20 21 22 23 24 25 26 27 28
000
ASUS45 KCYS 161910
RWRWY

WYOMING REGIONAL WEATHER ROUNDUP
NATIONAL WEATHER SERVICE CHEYENNE WY
100 PM MDT WED APR 16 2014

NOTE:  "FAIR" INDICATES FEW OR NO CLOUDS BELOW 12,000 FEET
WITH NO SIGNIFICANT WEATHER AND/OR OBSTRUCTIONS TO VISIBILITY.

WYZ001-162000-
YELLOWSTONE NATIONAL PARK

CITY           SKY/WX    TMP DP  RH WIND       PRES   REMARKS
LK YELLOWSTONE   N/A     30  15  53 VRB3      30.00S
W YELLOWSTONE  NOT AVBL

$$
WYZ002>013-054>058-071-098>099-162000-
NORTHERN WYOMING

CITY           SKY/WX    TMP DP  RH WIND       PRES   REMARKS
JACKSON        MOSUNNY   37  18  44 E8        30.01S WCI  31
CODY           CLOUDY    43  19  39 W3        29.96S
GREYBULL       MOSUNNY   50  27  40 N13G18    29.96S
WORLAND        MOSUNNY   49  24  37 NE8       29.97F
SHERIDAN       CLOUDY    43  30  60 N13       29.99S
BUFFALO        CLOUDY    36  29  75 N22       29.98R WCI  25
GILLETTE       MOSUNNY   46  28  49 NW14G25   29.96R
HULETT         MOCLDY    43  28  56 N12       29.97
NEWCASTLE      FAIR      43  28  56 NW12G21   29.95

$$
WYZ014>020-022>026-101>103-162000-
CENTRAL WYOMING

CITY           SKY/WX    TMP DP  RH WIND       PRES   REMARKS
BIG PINEY      SUNNY     41   8  25 N7G17     29.99F
PINEDALE       CLEAR     36  18  48 NW15G23   30.00S WCI  26
DUBOIS         FAIR      37  16  41 N12G17    29.95S WCI  30
LANDER         MOSUNNY   44  20  38 S6        29.95F
RIVERTON       CLOUDY    45  19  35 VRB7      29.97F
CASPER         FLURRIES  37  33  85 S6        29.98F WCI  32
DOUGLAS        CLOUDY    43  29  57 W13       29.98S

$$
WYZ021-027>030-104>119-162000-
SOUTHERN WYOMING

CITY           SKY/WX    TMP DP  RH WIND       PRES   REMARKS
EVANSTON       MOSUNNY   46   9  22 SW20      30.00S
KEMMERER       CLEAR     41  12  30 NW9G16    30.01S
FORT BRIDGER   FAIR      47   8  20 NW14      30.02F
ROCK SPRINGS   SUNNY     47  -3  12 W14G24    29.97F
DIXON          FAIR      46  11  24 SW13      30.02F
RAWLINS        CLOUDY    39  16  39 NW5       29.98F
SARATOGA       MOCLDY    43  14  31 W12G18    29.98S
LARAMIE        PTSUNNY   39  18  42 NW16      29.95S WCI  30
CHEYENNE       SNOW      35  31  85 N10       29.96S VSB 1/2 WCI  27
TORRINGTON     PTSUNNY   49  24  37 NW17G26   29.94R
PINE BLUFFS    MOCLDY    46  27  46 N21G32    29.95S

$$



USA.gov is the U.S. government's official web portal to all federal, state and local government web resources and services.